Wetterdaten: Woche 21.11.22 - 27.11.22 (KW47)
Datum Zeit Temp. 2m rel. Feuchte Luftdruck Regen Wind Richtung Sonne ET UV-Index Solar Taupunkt Ben
21.11.2022 00:00 7,4 C 89 % 1004,4 hPa 1,3 mm 13,5 km/h (3 Bft) N-NW 0,00 h 0,0 mm 0,0 UV-I 0 W/m 5,8 C 33,1 km/h (5 Bft)
21.11.2022 01:00 7,5 C 88 % 1004,7 hPa 0,0 mm 16,5 km/h (3 Bft) O 0,00 h 0,0 mm 0,0 UV-I 0 W/m 5,6 C 35,3 km/h (5 Bft)
21.11.2022 02:00 7,0 C 88 % 1004,9 hPa 0,0 mm 10,5 km/h (2 Bft) O 0,00 h 0,0 mm 0,0 UV-I 0 W/m 5,2 C 26,1 km/h (4 Bft)
21.11.2022 03:00 6,7 C 89 % 1005,0 hPa 0,0 mm 6,4 km/h (2 Bft) O 0,00 h 0,0 mm 0,0 UV-I 0 W/m 4,9 C 17,2 km/h (3 Bft)
21.11.2022 04:00 6,5 C 88 % 1005,1 hPa 0,0 mm 9,4 km/h (2 Bft) O 0,00 h 0,0 mm 0,0 UV-I 0 W/m 4,6 C 20,4 km/h (4 Bft)
21.11.2022 05:00 6,5 C 88 % 1005,1 hPa 0,0 mm 9,5 km/h (2 Bft) O 0,00 h 0,0 mm 0,0 UV-I 0 W/m 4,7 C 20,4 km/h (4 Bft)
21.11.2022 06:00 6,4 C 89 % 1005,0 hPa 0,0 mm 4,9 km/h (1 Bft) O 0,00 h 0,0 mm 0,0 UV-I 0 W/m 4,8 C 12,8 km/h (3 Bft)
21.11.2022 07:00 6,4 C 90 % 1004,8 hPa 0,0 mm 4,2 km/h (1 Bft) O 0,00 h 0,0 mm 0,0 UV-I 0 W/m 4,9 C 10,2 km/h (2 Bft)
21.11.2022 08:00 6,4 C 90 % 1004,8 hPa 0,0 mm 4,3 km/h (1 Bft) O 0,00 h 0,0 mm 0,0 UV-I 9 W/m 4,8 C 10,2 km/h (2 Bft)
21.11.2022 09:00 6,5 C 89 % 1004,6 hPa 0,0 mm 6,4 km/h (2 Bft) O 0,00 h 0,0 mm 0,0 UV-I 27 W/m 4,8 C 15,7 km/h (3 Bft)
21.11.2022 10:00 7,1 C 89 % 1004,1 hPa 0,0 mm 6,1 km/h (2 Bft) O 0,58 h 0,0 mm 0,1 UV-I 178 W/m 5,3 C 13,5 km/h (3 Bft)
21.11.2022 11:00 8,4 C 84 % 1003,5 hPa 0,0 mm 6,5 km/h (2 Bft) O 1,00 h 0,1 mm 0,0 UV-I 347 W/m 5,9 C 14,1 km/h (3 Bft)
21.11.2022 12:00 9,2 C 79 % 1002,4 hPa 0,0 mm 4,2 km/h (1 Bft) O 0,58 h 0,2 mm 0,0 UV-I 265 W/m 5,8 C 9,6 km/h (2 Bft)
21.11.2022 13:00 9,8 C 73 % 1001,3 hPa 0,0 mm 6,5 km/h (2 Bft) O 0,83 h 0,1 mm 0,0 UV-I 315 W/m 5,1 C 14,6 km/h (3 Bft)
21.11.2022 14:00 9,3 C 70 % 1000,3 hPa 0,0 mm 5,9 km/h (2 Bft) O 0,75 h 0,1 mm 0,0 UV-I 145 W/m 4,0 C 12,6 km/h (3 Bft)
21.11.2022 15:00 8,6 C 74 % 999,1 hPa 0,0 mm 4,5 km/h (1 Bft) O 0,17 h 0,1 mm 0,0 UV-I 64 W/m 4,3 C 11,7 km/h (2 Bft)
21.11.2022 16:00 7,8 C 78 % 997,8 hPa 0,0 mm 4,8 km/h (1 Bft) O 0,00 h 0,0 mm 0,0 UV-I 14 W/m 4,3 C 13,7 km/h (3 Bft)
21.11.2022 17:00 7,4 C 80 % 996,8 hPa 0,0 mm 5,4 km/h (1 Bft) O 0,00 h 0,0 mm 0,0 UV-I 0 W/m 4,1 C 13,7 km/h (3 Bft)
21.11.2022 18:00 7,2 C 82 % 995,8 hPa 0,0 mm 5,3 km/h (1 Bft) O 0,00 h 0,0 mm 0,0 UV-I 0 W/m 4,3 C 13,3 km/h (3 Bft)
21.11.2022 19:00 7,0 C 82 % 995,5 hPa 0,0 mm 5,2 km/h (1 Bft) O 0,00 h 0,0 mm 0,0 UV-I 0 W/m 4,2 C 14,2 km/h (3 Bft)
21.11.2022 20:00 7,2 C 83 % 994,7 hPa 0,0 mm 5,9 km/h (2 Bft) O 0,00 h 0,0 mm 0,0 UV-I 0 W/m 4,4 C 17,0 km/h (3 Bft)
21.11.2022 21:00 7,3 C 84 % 993,7 hPa 0,0 mm 5,8 km/h (2 Bft) O 0,00 h 0,0 mm 0,0 UV-I 0 W/m 4,8 C 16,1 km/h (3 Bft)
21.11.2022 22:00 7,1 C 85 % 993,1 hPa 0,0 mm 5,2 km/h (1 Bft) O 0,00 h 0,0 mm 0,0 UV-I 0 W/m 4,8 C 14,6 km/h (3 Bft)
21.11.2022 23:00 7,2 C 85 % 992,9 hPa 0,0 mm 6,4 km/h (2 Bft) O 0,00 h 0,0 mm 0,0 UV-I 0 W/m 4,9 C 17,9 km/h (3 Bft)
22.11.2022 00:00 7,1 C 87 % 992,7 hPa 0,0 mm 6,8 km/h (2 Bft) O 0,00 h 0,0 mm 0,0 UV-I 0 W/m 5,0 C 18,7 km/h (3 Bft)
22.11.2022 01:00 6,7 C 89 % 992,5 hPa 0,3 mm 2,9 km/h (1 Bft) O 0,00 h 0,0 mm 0,0 UV-I 0 W/m 5,0 C 10,6 km/h (2 Bft)
22.11.2022 02:00 6,4 C 90 % 992,7 hPa 0,0 mm 1,0 km/h (0 Bft) O 0,00 h 0,0 mm 0,0 UV-I 0 W/m 4,8 C 6,1 km/h (2 Bft)
22.11.2022 03:00 5,6 C 90 % 993,2 hPa 0,0 mm 0,1 km/h (0 Bft) N 0,00 h 0,0 mm 0,0 UV-I 0 W/m 4,1 C 1,5 km/h (1 Bft)
22.11.2022 04:00 5,3 C 90 % 993,7 hPa 0,0 mm 0,3 km/h (0 Bft) N 0,00 h 0,0 mm 0,0 UV-I 0 W/m 3,8 C 4,4 km/h (1 Bft)
22.11.2022 05:00 5,1 C 90 % 994,0 hPa 0,0 mm 0,3 km/h (0 Bft) N 0,00 h 0,0 mm 0,0 UV-I 0 W/m 3,6 C 3,5 km/h (1 Bft)
22.11.2022 06:00 4,5 C 90 % 994,4 hPa 0,0 mm 0,0 km/h (0 Bft) N 0,00 h 0,0 mm 0,0 UV-I 0 W/m 3,0 C 0,6 km/h (0 Bft)
22.11.2022 07:00 4,0 C 90 % 994,7 hPa 0,0 mm 0,2 km/h (0 Bft) N 0,00 h 0,0 mm 0,0 UV-I 0 W/m 2,6 C 3,1 km/h (1 Bft)
22.11.2022 08:00 4,5 C 90 % 994,9 hPa 0,0 mm 0,6 km/h (0 Bft) SW 0,00 h 0,0 mm 0,0 UV-I 19 W/m 3,0 C 7,0 km/h (2 Bft)
22.11.2022 09:00 5,5 C 88 % 995,4 hPa 0,0 mm 3,2 km/h (1 Bft) O 0,50 h 0,0 mm 0,0 UV-I 104 W/m 3,6 C 12,8 km/h (3 Bft)
22.11.2022 10:00 6,7 C 82 % 995,6 hPa 0,0 mm 3,1 km/h (1 Bft) O 0,08 h 0,0 mm 0,0 UV-I 113 W/m 3,9 C 15,3 km/h (3 Bft)
22.11.2022 11:00 8,0 C 78 % 995,2 hPa 0,0 mm 3,8 km/h (1 Bft) O 0,58 h 0,1 mm 0,0 UV-I 196 W/m 4,4 C 15,9 km/h (3 Bft)
22.11.2022 12:00 8,7 C 74 % 994,8 hPa 0,0 mm 6,1 km/h (2 Bft) O 0,75 h 0,1 mm 0,0 UV-I 261 W/m 4,3 C 19,6 km/h (3 Bft)
22.11.2022 13:00 9,0 C 72 % 994,7 hPa 0,0 mm 6,1 km/h (2 Bft) O 0,25 h 0,1 mm 0,0 UV-I 151 W/m 4,3 C 18,1 km/h (3 Bft)
22.11.2022 14:00 8,8 C 74 % 994,8 hPa 0,0 mm 6,2 km/h (2 Bft) O 0,00 h 0,1 mm 0,0 UV-I 64 W/m 4,4 C 18,7 km/h (3 Bft)
22.11.2022 15:00 8,8 C 76 % 994,7 hPa 0,0 mm 6,1 km/h (2 Bft) O 0,00 h 0,0 mm 0,0 UV-I 47 W/m 4,7 C 18,3 km/h (3 Bft)
22.11.2022 16:00 8,4 C 80 % 994,7 hPa 0,0 mm 3,8 km/h (1 Bft) O 0,00 h 0,0 mm 0,0 UV-I 12 W/m 5,2 C 13,9 km/h (3 Bft)
22.11.2022 17:00 8,4 C 81 % 995,3 hPa 0,0 mm 4,0 km/h (1 Bft) O 0,00 h 0,0 mm 0,0 UV-I 0 W/m 5,3 C 15,9 km/h (3 Bft)
22.11.2022 18:00 7,9 C 85 % 995,9 hPa 0,3 mm 2,1 km/h (1 Bft) O 0,00 h 0,0 mm 0,0 UV-I 0 W/m 5,6 C 8,9 km/h (2 Bft)
22.11.2022 19:00 7,7 C 88 % 996,2 hPa 0,0 mm 0,9 km/h (0 Bft) O 0,00 h 0,0 mm 0,0 UV-I 0 W/m 5,8 C 7,2 km/h (2 Bft)
22.11.2022 20:00 7,6 C 88 % 996,4 hPa 0,0 mm 0,6 km/h (0 Bft) O 0,00 h 0,0 mm 0,0 UV-I 0 W/m 5,8 C 6,7 km/h (2 Bft)
22.11.2022 21:00 7,9 C 86 % 996,6 hPa 0,0 mm 1,1 km/h (1 Bft) O 0,00 h 0,0 mm 0,0 UV-I 0 W/m 5,8 C 8,3 km/h (2 Bft)
22.11.2022 22:00 7,9 C 86 % 996,8 hPa 0,0 mm 2,1 km/h (1 Bft) O 0,00 h 0,0 mm 0,0 UV-I 0 W/m 5,7 C 11,7 km/h (2 Bft)
22.11.2022 23:00 7,6 C 88 % 997,1 hPa 0,0 mm 0,9 km/h (0 Bft) O 0,00 h 0,0 mm 0,0 UV-I 0 W/m 5,7 C 6,3 km/h (2 Bft)
23.11.2022 00:00 8,4 C 86 % 997,5 hPa 0,0 mm 3,8 km/h (1 Bft) O 0,00 h 0,0 mm 0,0 UV-I 0 W/m 6,1 C 12,6 km/h (3 Bft)
23.11.2022 01:00 8,9 C 84 % 997,6 hPa 0,0 mm 4,2 km/h (1 Bft) O 0,00 h 0,0 mm 0,0 UV-I 0 W/m 6,3 C 13,7 km/h (3 Bft)
23.11.2022 02:00 9,0 C 84 % 998,0 hPa 0,0 mm 3,9 km/h (1 Bft) O 0,00 h 0,0 mm 0,0 UV-I 0 W/m 6,5 C 12,6 km/h (3 Bft)
23.11.2022 03:00 9,0 C 84 % 998,4 hPa 0,0 mm 3,1 km/h (1 Bft) O 0,00 h 0,0 mm 0,0 UV-I 0 W/m 6,5 C 11,3 km/h (2 Bft)
23.11.2022 04:00 8,9 C 84 % 998,4 hPa 0,0 mm 2,4 km/h (1 Bft) O 0,00 h 0,0 mm 0,0 UV-I 0 W/m 6,4 C 9,3 km/h (2 Bft)
23.11.2022 05:00 8,9 C 83 % 998,5 hPa 0,0 mm 3,1 km/h (1 Bft) O 0,00 h 0,0 mm 0,0 UV-I 0 W/m 6,2 C 13,0 km/h (3 Bft)
23.11.2022 06:00 8,7 C 85 % 998,7 hPa 0,0 mm 2,7 km/h (1 Bft) O 0,00 h 0,0 mm 0,0 UV-I 0 W/m 6,2 C 11,3 km/h (2 Bft)
23.11.2022 07:00 8,3 C 85 % 998,7 hPa 0,0 mm 1,6 km/h (1 Bft) O 0,00 h 0,0 mm 0,0 UV-I 0 W/m 6,0 C 9,6 km/h (2 Bft)
23.11.2022 08:00 8,2 C 83 % 999,2 hPa 0,0 mm 3,6 km/h (1 Bft) O 0,08 h 0,0 mm 0,0 UV-I 16 W/m 5,4 C 12,4 km/h (3 Bft)
23.11.2022 09:00 8,1 C 84 % 999,5 hPa 0,0 mm 2,1 km/h (1 Bft) O 0,67 h 0,0 mm 0,0 UV-I 125 W/m 5,5 C 9,8 km/h (2 Bft)
23.11.2022 10:00 8,8 C 81 % 999,8 hPa 0,0 mm 3,0 km/h (1 Bft) O 0,83 h 0,1 mm 0,0 UV-I 261 W/m 5,7 C 13,1 km/h (3 Bft)
23.11.2022 11:00 9,5 C 77 % 999,4 hPa 0,0 mm 3,5 km/h (1 Bft) O 0,50 h 0,1 mm 0,0 UV-I 239 W/m 5,6 C 13,5 km/h (3 Bft)
23.11.2022 12:00 10,5 C 70 % 998,6 hPa 0,0 mm 6,8 km/h (2 Bft) O 0,92 h 0,1 mm 0,0 UV-I 282 W/m 5,3 C 18,1 km/h (3 Bft)
23.11.2022 13:00 10,3 C 70 % 998,3 hPa 0,0 mm 9,1 km/h (2 Bft) O 0,67 h 0,1 mm 0,0 UV-I 253 W/m 5,1 C 23,1 km/h (4 Bft)
23.11.2022 14:00 10,9 C 69 % 997,6 hPa 0,0 mm 5,9 km/h (2 Bft) O 0,75 h 0,1 mm 0,0 UV-I 204 W/m 5,4 C 17,6 km/h (3 Bft)
23.11.2022 15:00 10,0 C 71 % 997,4 hPa 0,0 mm 2,3 km/h (1 Bft) O 0,00 h 0,1 mm 0,0 UV-I 51 W/m 5,0 C 12,0 km/h (2 Bft)
23.11.2022 16:00 9,4 C 79 % 998,7 hPa 0,5 mm 1,8 km/h (1 Bft) O 0,00 h 0,0 mm 0,0 UV-I 11 W/m 5,9 C 9,3 km/h (2 Bft)
23.11.2022 17:00 8,0 C 88 % 999,7 hPa 0,5 mm 2,0 km/h (1 Bft) O 0,00 h 0,0 mm 0,0 UV-I 0 W/m 6,2 C 6,7 km/h (2 Bft)
23.11.2022 18:00 7,5 C 89 % 1000,4 hPa 1,8 mm 2,1 km/h (1 Bft) O 0,00 h 0,0 mm 0,0 UV-I 0 W/m 5,8 C 8,8 km/h (2 Bft)
23.11.2022 19:00 7,5 C 90 % 1001,0 hPa 0,0 mm 0,3 km/h (0 Bft) O 0,00 h 0,0 mm 0,0 UV-I 0 W/m 6,0 C 3,5 km/h (1 Bft)
23.11.2022 20:00 7,3 C 91 % 1001,9 hPa 0,0 mm 0,5 km/h (0 Bft) O 0,00 h 0,0 mm 0,0 UV-I 0 W/m 5,8 C 4,2 km/h (1 Bft)
23.11.2022 21:00 6,6 C 91 % 1002,7 hPa 0,0 mm 0,1 km/h (0 Bft) N 0,00 h 0,0 mm 0,0 UV-I 0 W/m 5,2 C 2,4 km/h (1 Bft)
23.11.2022 22:00 6,0 C 91 % 1003,3 hPa 0,0 mm 0,0 km/h (0 Bft) N 0,00 h 0,0 mm 0,0 UV-I 0 W/m 4,7 C 0,2 km/h (0 Bft)
23.11.2022 23:00 6,5 C 92 % 1004,0 hPa 0,0 mm 1,0 km/h (0 Bft) O 0,00 h 0,0 mm 0,0 UV-I 0 W/m 5,3 C 6,7 km/h (2 Bft)
24.11.2022 00:00 7,9 C 90 % 1004,7 hPa 0,0 mm 1,3 km/h (1 Bft) O 0,00 h 0,0 mm 0,0 UV-I 0 W/m 6,4 C 8,5 km/h (2 Bft)
24.11.2022 01:00 6,8 C 90 % 1005,0 hPa 0,0 mm 0,1 km/h (0 Bft) N 0,00 h 0,0 mm 0,0 UV-I 0 W/m 5,3 C 2,0 km/h (1 Bft)
24.11.2022 02:00 6,5 C 91 % 1005,4 hPa 0,0 mm 0,1 km/h (0 Bft) N 0,00 h 0,0 mm 0,0 UV-I 0 W/m 5,0 C 2,0 km/h (1 Bft)
24.11.2022 03:00 6,6 C 91 % 1005,9 hPa 0,0 mm 0,4 km/h (0 Bft) N 0,00 h 0,0 mm 0,0 UV-I 0 W/m 5,3 C 3,3 km/h (1 Bft)
24.11.2022 04:00 6,9 C 90 % 1006,1 hPa 0,0 mm 0,3 km/h (0 Bft) N 0,00 h 0,0 mm 0,0 UV-I 0 W/m 5,4 C 3,1 km/h (1 Bft)
24.11.2022 05:00 7,5 C 90 % 1006,5 hPa 0,0 mm 1,1 km/h (0 Bft) O 0,00 h 0,0 mm 0,0 UV-I 0 W/m 5,9 C 5,7 km/h (1 Bft)
24.11.2022 06:00 8,0 C 89 % 1007,1 hPa 0,0 mm 2,6 km/h (1 Bft) O 0,00 h 0,0 mm 0,0 UV-I 0 W/m 6,2 C 10,7 km/h (2 Bft)
24.11.2022 07:00 8,7 C 85 % 1007,7 hPa 0,0 mm 8,7 km/h (2 Bft) O 0,00 h 0,0 mm 0,0 UV-I 0 W/m 6,2 C 19,4 km/h (3 Bft)
24.11.2022 08:00 8,2 C 84 % 1008,7 hPa 0,0 mm 5,6 km/h (1 Bft) O 0,00 h 0,0 mm 0,0 UV-I 10 W/m 5,7 C 14,2 km/h (3 Bft)
24.11.2022 09:00 8,4 C 85 % 1009,9 hPa 0,0 mm 8,7 km/h (2 Bft) O 0,42 h 0,0 mm 0,1 UV-I 92 W/m 6,1 C 19,6 km/h (3 Bft)
24.11.2022 10:00 9,5 C 83 % 1010,7 hPa 0,0 mm 10,4 km/h (2 Bft) O 0,42 h 0,1 mm 0,0 UV-I 178 W/m 6,8 C 24,8 km/h (4 Bft)
24.11.2022 11:00 10,7 C 80 % 1011,3 hPa 0,0 mm 10,9 km/h (2 Bft) O 1,00 h 0,1 mm 0,0 UV-I 340 W/m 7,5 C 24,6 km/h (4 Bft)
24.11.2022 12:00 11,3 C 78 % 1011,7 hPa 0,3 mm 9,5 km/h (2 Bft) O 1,00 h 0,2 mm 0,0 UV-I 416 W/m 7,5 C 19,6 km/h (3 Bft)
24.11.2022 13:00 12,2 C 73 % 1011,8 hPa 0,0 mm 7,9 km/h (2 Bft) O 1,00 h 0,2 mm 0,0 UV-I 374 W/m 7,6 C 18,3 km/h (3 Bft)
24.11.2022 14:00 12,7 C 71 % 1011,8 hPa 0,0 mm 5,8 km/h (2 Bft) O 1,00 h 0,2 mm 0,0 UV-I 272 W/m 7,4 C 13,1 km/h (3 Bft)
24.11.2022 15:00 11,9 C 71 % 1011,9 hPa 0,0 mm 3,0 km/h (1 Bft) O 1,00 h 0,1 mm 0,0 UV-I 129 W/m 6,8 C 8,0 km/h (2 Bft)
24.11.2022 16:00 10,9 C 73 % 1012,0 hPa 0,0 mm 3,5 km/h (1 Bft) O 0,33 h 0,1 mm 0,0 UV-I 15 W/m 6,3 C 7,2 km/h (2 Bft)
24.11.2022 17:00 9,6 C 78 % 1012,4 hPa 0,0 mm 5,6 km/h (1 Bft) O 0,00 h 0,0 mm 0,0 UV-I 0 W/m 6,0 C 11,8 km/h (2 Bft)
24.11.2022 18:00 8,8 C 79 % 1012,7 hPa 0,0 mm 3,8 km/h (1 Bft) O 0,00 h 0,0 mm 0,0 UV-I 0 W/m 5,4 C 8,1 km/h (2 Bft)
24.11.2022 19:00 8,0 C 82 % 1012,8 hPa 0,0 mm 4,3 km/h (1 Bft) O 0,00 h 0,0 mm 0,0 UV-I 0 W/m 5,0 C 10,9 km/h (2 Bft)
24.11.2022 20:00 7,2 C 84 % 1012,7 hPa 0,0 mm 2,5 km/h (1 Bft) O 0,00 h 0,0 mm 0,0 UV-I 0 W/m 4,6 C 8,2 km/h (2 Bft)
24.11.2022 21:00 6,5 C 86 % 1012,6 hPa 0,0 mm 2,9 km/h (1 Bft) S 0,00 h 0,0 mm 0,0 UV-I 0 W/m 4,3 C 9,4 km/h (2 Bft)
24.11.2022 22:00 6,2 C 87 % 1012,6 hPa 0,0 mm 2,1 km/h (1 Bft) S-SW 0,00 h 0,0 mm 0,0 UV-I 0 W/m 4,2 C 9,3 km/h (2 Bft)
24.11.2022 23:00 6,3 C 88 % 1012,3 hPa 0,0 mm 3,2 km/h (1 Bft) O 0,00 h 0,0 mm 0,0 UV-I 0 W/m 4,6 C 9,6 km/h (2 Bft)
25.11.2022 00:00 6,7 C 88 % 1012,1 hPa 0,0 mm 3,8 km/h (1 Bft) O 0,00 h 0,0 mm 0,0 UV-I 0 W/m 4,9 C 10,0 km/h (2 Bft)
25.11.2022 01:00 6,4 C 89 % 1011,8 hPa 0,0 mm 3,9 km/h (1 Bft) O 0,00 h 0,0 mm 0,0 UV-I 0 W/m 4,7 C 10,4 km/h (2 Bft)
25.11.2022 02:00 6,8 C 90 % 1011,5 hPa 0,0 mm 3,3 km/h (1 Bft) O 0,00 h 0,0 mm 0,0 UV-I 0 W/m 5,2 C 10,4 km/h (2 Bft)
25.11.2022 03:00 7,3 C 89 % 1011,3 hPa 0,0 mm 4,1 km/h (1 Bft) O 0,00 h 0,0 mm 0,0 UV-I 0 W/m 5,6 C 11,1 km/h (2 Bft)
25.11.2022 04:00 7,6 C 89 % 1011,4 hPa 0,0 mm 3,9 km/h (1 Bft) O 0,00 h 0,0 mm 0,0 UV-I 0 W/m 5,9 C 9,8 km/h (2 Bft)
25.11.2022 05:00 8,0 C 89 % 1011,8 hPa 0,0 mm 3,1 km/h (1 Bft) O 0,00 h 0,0 mm 0,0 UV-I 0 W/m 6,3 C 8,5 km/h (2 Bft)
25.11.2022 06:00 8,0 C 90 % 1012,3 hPa 0,5 mm 0,9 km/h (0 Bft) O 0,00 h 0,0 mm 0,0 UV-I 0 W/m 6,5 C 4,3 km/h (1 Bft)
25.11.2022 07:00 8,0 C 91 % 1012,8 hPa 0,0 mm 1,0 km/h (0 Bft) O 0,00 h 0,0 mm 0,0 UV-I 0 W/m 6,6 C 5,6 km/h (1 Bft)
25.11.2022 08:00 7,6 C 91 % 1013,4 hPa 0,0 mm 0,2 km/h (0 Bft) N 0,00 h 0,0 mm 0,0 UV-I 19 W/m 6,2 C 2,2 km/h (1 Bft)
25.11.2022 09:00 7,5 C 91 % 1014,2 hPa 0,0 mm 0,2 km/h (0 Bft) N 0,67 h 0,0 mm 0,0 UV-I 106 W/m 6,2 C 1,8 km/h (1 Bft)
25.11.2022 10:00 8,7 C 91 % 1015,0 hPa 0,0 mm 0,7 km/h (0 Bft) O 1,00 h 0,1 mm 0,0 UV-I 276 W/m 7,3 C 5,4 km/h (1 Bft)
25.11.2022 11:00 10,3 C 86 % 1015,7 hPa 0,0 mm 4,3 km/h (1 Bft) O 1,00 h 0,1 mm 0,0 UV-I 362 W/m 8,1 C 14,8 km/h (3 Bft)
25.11.2022 12:00 11,5 C 81 % 1016,2 hPa 0,0 mm 4,3 km/h (1 Bft) O 1,00 h 0,1 mm 0,0 UV-I 380 W/m 8,3 C 17,0 km/h (3 Bft)
25.11.2022 13:00 12,3 C 78 % 1016,6 hPa 0,0 mm 5,2 km/h (1 Bft) O 1,00 h 0,2 mm 0,0 UV-I 315 W/m 8,5 C 18,3 km/h (3 Bft)
25.11.2022 14:00 12,3 C 74 % 1017,2 hPa 0,0 mm 4,3 km/h (1 Bft) O 1,00 h 0,2 mm 0,0 UV-I 267 W/m 7,7 C 15,9 km/h (3 Bft)
25.11.2022 15:00 11,6 C 77 % 1018,0 hPa 0,0 mm 1,1 km/h (1 Bft) O 0,75 h 0,1 mm 0,0 UV-I 112 W/m 7,7 C 7,2 km/h (2 Bft)
25.11.2022 16:00 11,0 C 79 % 1018,8 hPa 0,0 mm 1,0 km/h (0 Bft) O 0,08 h 0,1 mm 0,0 UV-I 11 W/m 7,5 C 5,9 km/h (2 Bft)
25.11.2022 17:00 10,4 C 80 % 1019,8 hPa 0,0 mm 0,9 km/h (0 Bft) O 0,00 h 0,0 mm 0,0 UV-I 0 W/m 7,2 C 6,5 km/h (2 Bft)
25.11.2022 18:00 9,7 C 83 % 1020,7 hPa 0,0 mm 1,3 km/h (1 Bft) O 0,00 h 0,0 mm 0,0 UV-I 0 W/m 6,9 C 6,5 km/h (2 Bft)
25.11.2022 19:00 9,5 C 85 % 1021,8 hPa 0,0 mm 0,4 km/h (0 Bft) O 0,00 h 0,0 mm 0,0 UV-I 0 W/m 7,0 C 4,3 km/h (1 Bft)
25.11.2022 20:00 9,2 C 86 % 1022,7 hPa 0,0 mm 1,7 km/h (1 Bft) O 0,00 h 0,0 mm 0,0 UV-I 0 W/m 6,9 C 9,4 km/h (2 Bft)
25.11.2022 21:00 8,8 C 87 % 1023,7 hPa 0,0 mm 0,6 km/h (0 Bft) N 0,00 h 0,0 mm 0,0 UV-I 0 W/m 6,7 C 5,0 km/h (1 Bft)
25.11.2022 22:00 8,1 C 88 % 1024,5 hPa 0,0 mm 0,4 km/h (0 Bft) O 0,00 h 0,0 mm 0,0 UV-I 0 W/m 6,4 C 4,3 km/h (1 Bft)
25.11.2022 23:00 7,8 C 89 % 1025,0 hPa 0,0 mm 1,4 km/h (1 Bft) O 0,00 h 0,0 mm 0,0 UV-I 0 W/m 6,1 C 5,9 km/h (2 Bft)
26.11.2022 00:00 7,3 C 89 % 1025,8 hPa 0,0 mm 1,7 km/h (1 Bft) O 0,00 h 0,0 mm 0,0 UV-I 0 W/m 5,7 C 6,7 km/h (2 Bft)
26.11.2022 01:00 6,8 C 90 % 1026,4 hPa 0,0 mm 0,8 km/h (0 Bft) O 0,00 h 0,0 mm 0,0 UV-I 0 W/m 5,3 C 4,2 km/h (1 Bft)
26.11.2022 02:00 6,5 C 91 % 1027,0 hPa 0,0 mm 0,6 km/h (0 Bft) O 0,00 h 0,0 mm 0,0 UV-I 0 W/m 5,1 C 4,1 km/h (1 Bft)
26.11.2022 03:00 6,1 C 91 % 1027,0 hPa 0,0 mm 0,0 km/h (0 Bft) N 0,00 h 0,0 mm 0,0 UV-I 0 W/m 4,7 C 0,4 km/h (0 Bft)
26.11.2022 04:00 5,3 C 90 % 1027,2 hPa 0,0 mm 0,0 km/h (0 Bft) N 0,00 h 0,0 mm 0,0 UV-I 0 W/m 3,9 C 0,6 km/h (0 Bft)
26.11.2022 05:00 4,6 C 91 % 1028,0 hPa 0,0 mm 0,0 km/h (0 Bft) N 0,00 h 0,0 mm 0,0 UV-I 0 W/m 3,3 C 0,7 km/h (0 Bft)
26.11.2022 06:00 3,9 C 91 % 1028,6 hPa 0,0 mm 0,0 km/h (0 Bft) N 0,00 h 0,0 mm 0,0 UV-I 0 W/m 2,5 C 0,6 km/h (0 Bft)
26.11.2022 07:00 3,8 C 91 % 1029,0 hPa 0,0 mm 0,0 km/h (0 Bft) N 0,00 h 0,0 mm 0,0 UV-I 4 W/m 2,4 C 1,1 km/h (1 Bft)
26.11.2022 08:00 3,9 C 93 % 1029,6 hPa 0,0 mm 0,1 km/h (0 Bft) N 0,67 h 0,0 mm 0,0 UV-I 31 W/m 2,9 C 3,1 km/h (1 Bft)
26.11.2022 09:00 4,5 C 93 % 1029,9 hPa 0,0 mm 0,2 km/h (0 Bft) N 0,75 h 0,0 mm 0,0 UV-I 107 W/m 3,5 C 2,9 km/h (1 Bft)
26.11.2022 10:00 5,7 C 93 % 1030,2 hPa 0,0 mm 0,2 km/h (0 Bft) N 1,00 h 0,0 mm 0,0 UV-I 188 W/m 4,6 C 2,2 km/h (1 Bft)
26.11.2022 11:00 7,5 C 91 % 1030,3 hPa 0,0 mm 0,3 km/h (0 Bft) N 1,00 h 0,1 mm 0,0 UV-I 240 W/m 6,0 C 2,6 km/h (1 Bft)
26.11.2022 12:00 9,1 C 86 % 1030,0 hPa 0,0 mm 0,7 km/h (0 Bft) O 0,42 h 0,1 mm 0,0 UV-I 178 W/m 6,9 C 3,7 km/h (1 Bft)
26.11.2022 13:00 9,8 C 83 % 1029,8 hPa 0,0 mm 0,5 km/h (0 Bft) N 0,08 h 0,1 mm 0,0 UV-I 149 W/m 7,1 C 2,9 km/h (1 Bft)
26.11.2022 14:00 10,1 C 83 % 1029,8 hPa 0,0 mm 0,4 km/h (0 Bft) N 0,58 h 0,1 mm 0,0 UV-I 152 W/m 7,3 C 3,3 km/h (1 Bft)
26.11.2022 15:00 9,7 C 82 % 1029,3 hPa 0,0 mm 0,4 km/h (0 Bft) N 0,25 h 0,1 mm 0,0 UV-I 60 W/m 6,9 C 3,3 km/h (1 Bft)
26.11.2022 16:00 8,5 C 85 % 1029,3 hPa 0,0 mm 0,2 km/h (0 Bft) N 0,33 h 0,0 mm 0,0 UV-I 15 W/m 6,0 C 2,4 km/h (1 Bft)
26.11.2022 17:00 7,7 C 86 % 1029,2 hPa 0,0 mm 0,1 km/h (0 Bft) N 0,00 h 0,0 mm 0,0 UV-I 0 W/m 5,6 C 2,0 km/h (1 Bft)
26.11.2022 18:00 7,0 C 88 % 1029,2 hPa 0,0 mm 0,2 km/h (0 Bft) N 0,00 h 0,0 mm 0,0 UV-I 0 W/m 5,1 C 2,2 km/h (1 Bft)
26.11.2022 19:00 6,3 C 89 % 1029,0 hPa 0,0 mm 0,1 km/h (0 Bft) N 0,00 h 0,0 mm 0,0 UV-I 0 W/m 4,6 C 2,0 km/h (1 Bft)
26.11.2022 20:00 5,8 C 90 % 1028,6 hPa 0,0 mm 0,3 km/h (0 Bft) N 0,00 h 0,0 mm 0,0 UV-I 0 W/m 4,2 C 2,4 km/h (1 Bft)
26.11.2022 21:00 5,3 C 90 % 1028,6 hPa 0,0 mm 0,3 km/h (0 Bft) N 0,00 h 0,0 mm 0,0 UV-I 0 W/m 3,8 C 2,8 km/h (1 Bft)
26.11.2022 22:00 4,9 C 90 % 1028,9 hPa 0,0 mm 0,4 km/h (0 Bft) N 0,00 h 0,0 mm 0,0 UV-I 0 W/m 3,4 C 2,8 km/h (1 Bft)
26.11.2022 23:00 4,7 C 91 % 1027,9 hPa 0,0 mm 0,4 km/h (0 Bft) O 0,00 h 0,0 mm 0,0 UV-I 0 W/m 3,3 C 3,7 km/h (1 Bft)
27.11.2022 00:00 4,4 C 91 % 1027,4 hPa 0,0 mm 1,4 km/h (1 Bft) O 0,00 h 0,0 mm 0,0 UV-I 0 W/m 3,0 C 8,0 km/h (2 Bft)
27.11.2022 01:00 4,4 C 91 % 1026,6 hPa 0,0 mm 3,2 km/h (1 Bft) O 0,00 h 0,0 mm 0,0 UV-I 0 W/m 3,1 C 12,9 km/h (3 Bft)
27.11.2022 02:00 4,7 C 91 % 1026,5 hPa 0,0 mm 4,1 km/h (1 Bft) O 0,00 h 0,0 mm 0,0 UV-I 0 W/m 3,2 C 14,6 km/h (3 Bft)
27.11.2022 03:00 4,7 C 90 % 1025,8 hPa 0,0 mm 1,5 km/h (1 Bft) O 0,00 h 0,0 mm 0,0 UV-I 0 W/m 3,1 C 11,3 km/h (2 Bft)
27.11.2022 04:00 4,6 C 89 % 1025,3 hPa 0,0 mm 1,6 km/h (1 Bft) O 0,00 h 0,0 mm 0,0 UV-I 0 W/m 3,0 C 10,7 km/h (2 Bft)
27.11.2022 05:00 4,8 C 89 % 1024,8 hPa 0,0 mm 2,5 km/h (1 Bft) O 0,00 h 0,0 mm 0,0 UV-I 0 W/m 3,1 C 15,7 km/h (3 Bft)
27.11.2022 06:00 4,8 C 88 % 1024,2 hPa 0,0 mm 1,6 km/h (1 Bft) O 0,00 h 0,0 mm 0,0 UV-I 0 W/m 3,0 C 13,5 km/h (3 Bft)
27.11.2022 07:00 5,0 C 88 % 1023,6 hPa 0,0 mm 2,4 km/h (1 Bft) O 0,00 h 0,0 mm 0,0 UV-I 0 W/m 3,2 C 13,9 km/h (3 Bft)
27.11.2022 08:00 5,3 C 87 % 1022,7 hPa 0,0 mm 2,9 km/h (1 Bft) O 0,00 h 0,0 mm 0,0 UV-I 10 W/m 3,3 C 13,9 km/h (3 Bft)
27.11.2022 09:00 6,0 C 86 % 1022,5 hPa 0,0 mm 2,8 km/h (1 Bft) O 0,17 h 0,0 mm 0,0 UV-I 69 W/m 3,8 C 14,4 km/h (3 Bft)
27.11.2022 10:00 6,8 C 84 % 1022,1 hPa 0,0 mm 2,9 km/h (1 Bft) O 0,33 h 0,0 mm 0,0 UV-I 121 W/m 4,3 C 16,3 km/h (3 Bft)
27.11.2022 11:00 7,5 C 82 % 1021,6 hPa 0,0 mm 2,0 km/h (1 Bft) O 0,00 h 0,1 mm 0,0 UV-I 96 W/m 4,7 C 13,7 km/h (3 Bft)
27.11.2022 12:00 7,9 C 80 % 1020,4 hPa 0,0 mm 2,3 km/h (1 Bft) O 0,00 h 0,0 mm 0,0 UV-I 81 W/m 4,7 C 16,7 km/h (3 Bft)
27.11.2022 13:00 8,5 C 76 % 1019,0 hPa 0,0 mm 2,6 km/h (1 Bft) O 0,00 h 0,0 mm 0,0 UV-I 94 W/m 4,5 C 15,2 km/h (3 Bft)
27.11.2022 14:00 9,0 C 74 % 1018,1 hPa 0,0 mm 2,0 km/h (1 Bft) O 0,00 h 0,1 mm 0,0 UV-I 63 W/m 4,6 C 12,6 km/h (3 Bft)
27.11.2022 15:00 8,6 C 78 % 1017,8 hPa 0,0 mm 2,5 km/h (1 Bft) O 0,00 h 0,0 mm 0,0 UV-I 24 W/m 5,0 C 14,4 km/h (3 Bft)
27.11.2022 16:00 8,2 C 81 % 1017,6 hPa 0,0 mm 1,4 km/h (1 Bft) O 0,00 h 0,0 mm 0,0 UV-I 7 W/m 5,1 C 10,4 km/h (2 Bft)
27.11.2022 17:00 7,6 C 84 % 1017,2 hPa 0,0 mm 1,9 km/h (1 Bft) O 0,00 h 0,0 mm 0,0 UV-I 0 W/m 5,0 C 11,1 km/h (2 Bft)
27.11.2022 18:00 7,4 C 84 % 1016,0 hPa 0,0 mm 3,2 km/h (1 Bft) O 0,00 h 0,0 mm 0,0 UV-I 0 W/m 4,9 C 15,2 km/h (3 Bft)
27.11.2022 19:00 7,2 C 85 % 1015,2 hPa 0,0 mm 3,2 km/h (1 Bft) O 0,00 h 0,0 mm 0,0 UV-I 0 W/m 4,8 C 15,0 km/h (3 Bft)
27.11.2022 20:00 7,0 C 85 % 1014,9 hPa 0,0 mm 1,6 km/h (1 Bft) O 0,00 h 0,0 mm 0,0 UV-I 0 W/m 4,6 C 10,4 km/h (2 Bft)
27.11.2022 21:00 6,9 C 85 % 1014,3 hPa 0,0 mm 1,6 km/h (1 Bft) O 0,00 h 0,0 mm 0,0 UV-I 0 W/m 4,6 C 10,4 km/h (2 Bft)
27.11.2022 22:00 6,9 C 87 % 1013,4 hPa 0,0 mm 2,6 km/h (1 Bft) S 0,00 h 0,0 mm 0,0 UV-I 0 W/m 4,9 C 12,6 km/h (3 Bft)
27.11.2022 23:00 6,7 C 89 % 1013,0 hPa 0,3 mm 3,1 km/h (1 Bft) O 0,00 h 0,0 mm 0,0 UV-I 0 W/m 5,0 C 13,5 km/h (3 Bft)
Min-Datum _ 26.11.22 23.11.22 22.11.22 - 22.11.22 - - - - - 26.11.22 22.11.22
_ Min-Zeit 06:45 13:50 01:20 - 02:50 - - - - - 06:50 03:05
Minimum _ 3,7 C 67 % 992,4 hPa - 0,0 km/h (0 Bft) - - - - - 2,4 C 0,0 km/h (0 Bft)
Max-Datum _ 24.11.22 23.11.22 26.11.22 23.11.22 21.11.22 - 21.11.22 24.11.22 21.11.22 23.11.22 25.11.22 21.11.22
_ Max-Zeit 14:20 23:25 10:45 18:10 00:55 - 10:25 12:00 10:10 11:50 13:40 00:50
Maximum _ 12,8 C 93 % 1030,3 hPa 1,8 mm 21,9 km/h
N-NW (4 Bft)
- 0,08 h 0,2 mm 0,1 UV-I 443 W/m 8,6 C 44,4 km/h
N-NW (6 Bft)
Durchschnitt _ 7,6 C 85 % 1010,1 hPa #5,6 mm 3,1 km/h (1 Bft) O #28:45 h #3,862 mm 0,1 UV-I 143 W/m 5,2 C 10,5 km/h (2 Bft)



© 1998 - 2022 www.pulheimwetter.de